Location: Toruń
(53.0217°N, 18.6107°E)
Time: 01:36:57
(UTC+01:00)

ISS - Visible Passes

Search period start: 23 January 2019 00:00
Search period end: 02 February 2019 00:00
Orbit: 404 x 411 km, 51.6° (Epoch: 23 January)

Date Brightness Start Highest point End Pass type
(mag) Time Alt. Az. Time Alt. Az. Time Alt. Az.
23 Jan -1.2 18:40:27 10° SSW 18:41:04 13° S 18:41:04 13° S visible
24 Jan -1.6 17:50:10 10° S 17:51:46 13° SE 17:52:03 13° SE visible
24 Jan -0.6 19:24:32 10° SW 19:24:46 12° SW 19:24:46 12° SW visible
25 Jan -2.3 18:33:28 10° SW 18:35:40 27° S 18:35:40 27° S visible
26 Jan -2.2 17:42:34 10° SSW 17:45:12 22° SSE 17:46:30 18° ESE visible
26 Jan -1.2 19:18:06 10° WSW 19:19:13 19° WSW 19:19:13 19° WSW visible
27 Jan -3.3 18:26:51 10° WSW 18:30:00 47° SSE 18:30:00 47° SSE visible
28 Jan -2.8 17:35:40 10° SW 17:38:44 36° SSE 17:40:44 18° E visible
28 Jan -1.7 19:11:45 10° W 19:13:26 27° WSW 19:13:26 27° WSW visible
29 Jan -3.7 18:20:23 10° WSW 18:23:40 63° S 18:24:08 54° SE visible
29 Jan -0.2 19:56:49 10° W 19:56:51 10° W 19:56:51 10° W visible
30 Jan -3.3 17:29:04 10° WSW 17:32:17 52° SSE 17:34:49 15° E visible
30 Jan -2.3 19:05:24 10° W 19:07:31 36° WSW 19:07:31 36° WSW visible
31 Jan -3.7 18:13:59 10° W 18:17:17 70° S 18:18:11 43° ESE visible
31 Jan -0.5 19:50:29 10° W 19:50:54 13° W 19:50:54 13° W visible
01 Feb -3.6 17:22:34 10° WSW 17:25:51 66° S 17:28:51 12° E visible
01 Feb -2.8 18:59:01 10° W 19:01:34 44° WSW 19:01:34 44° WSW visible
